Location: Clanezzo
(45.7500°N, 9.6000°E)
Time: 01:21:57
(UTC+00:00)

MetOp-B - Pass Details

Date: 12 May 2021
Orbit: 819 x 821 km, 98.7° (Epoch: 23 June)

Event Time Altitude Azimuth Distance (km) Brightness Sun altitude
Exits shadow 19:54:10 12° 152° (SSE) 2,240 5.8 -11.1°
Maximum altitude 19:59:01 66° 72° (ENE) 894 4.2 -11.7°
Drops below altitude 10° 20:04:20 10° 351° (N) 2,428 7.4 -12.4°
Sets 20:06:42 0° 349° (N) 3,364 8.3 -12.7°
